Regional Weather Roundup
Issued by NWS Lake Charles, LA

Home | Current Version | Previous Version | Text Only | Print | Product List | Glossary On
Versions: 1 2 3 4 5 6 7 8 9 10 11 12 13 14 15 16 17 18 19 20 21 22 23 24 25 26 27 28 29 30 31 32 33 34 35 36 37 38 39 40 41 42 43 44 45 46 47 48 49 50
817
ASUS44 KLCH 061510
RWRLCH
REGIONAL WEATHER ROUNDUP
NATIONAL WEATHER SERVICE LAKE CHARLES LA
900 AM CST SAT FEB 06 2016

Note: "fair" indicates few or no clouds below 12,000 feet with no
significant weather and/or obstructions to visibility.


ACROSS SOUTHEAST TEXAS

CITY           SKY/WX    TMP DP  RH WIND       PRES   REMARKS
BEAUMONT       PTSUNNY   45  43  93 NE10      30.32F
BEAUMONT CITY  FAIR      46  43  89 E9        30.31F
ORANGE         CLOUDY    43  40  87 NE6       30.35F
JASPER         CLOUDY    41  40  95 E5        30.34S
$$

ACROSS CENTRAL LOUISIANA

CITY           SKY/WX    TMP DP  RH WIND       PRES   REMARKS
LEESVILLE      LGT RAIN  40  36  86 W3        30.36S
FULLERTON      CLOUDY    42  32  67 CALM      30.33S
ALEXANDRIA INT MOSUNNY   43  36  76 CALM      30.34F
ESLER FIELD    MOSUNNY   47  34  60 CALM      30.35S
DERIDDER       RAIN      39  37  94 E6        30.37F
OAKDALE          N/A     42  36  77 CALM      30.37R
OPELOUSAS      FAIR      46  33  61 NE3       30.35S
$$

ACROSS SOUTHWEST AND SOUTH CENTRAL LOUISIANA

CITY           SKY/WX    TMP DP  RH WIND       PRES   REMARKS
SULPHUR        DRIZZLE   43  40  89 MISG      30.37S
LAKE CHARLES   LGT RAIN  44  39  82 N7        30.37R
CHENNAULT INT  NOT AVBL
CAMERON PHI    PTSUNNY   48  39  71 NE9       30.36R
DEQUINCY       RAIN      40  40 100 CALM      30.35F
JENNINGS       CLOUDY    46  34  61 NW9       30.36R
LAFAYETTE      MOSUNNY   48  36  63 NE3       30.35R
NEW IBERIA     MOSUNNY   49  38  65 CALM      30.35F
ABBEVILLE      FAIR      46  38  73 E3        30.34S
PATTERSON      SUNNY     48  30  49 N3        30.36R
SALT POINT       N/A     47  35  63 CALM      30.34R
$$

SELECTED SITES ACROSS THE REGION

CITY           SKY/WX    TMP DP  RH WIND       PRES   REMARKS
HOUSTON BUSH   MOSUNNY   48  46  93 CALM      30.31R
HOUSTON HOBBY  MOSUNNY   49  45  86 SW3       30.31R
GALVESTON      MOSUNNY   51  50  96 CALM      30.32S
COLLEGE STAT   SUNNY     45  34  65 W13       30.31R
CONROE         SUNNY     45  44  97 CALM      30.31R FOG
HUNTSVILLE     SUNNY     46  39  76 W9        30.28S
LUFKIN         CLOUDY    41  39  93 E9        30.30S
SHREVEPORT     CLOUDY    42  32  67 SE6       30.32R
MONROE         MOSUNNY   43  31  62 CALM      30.37S
NATCHEZ MS     SUNNY     41  27  56 CALM      30.35F
BATON ROUGE    CLOUDY    44  28  53 CALM      30.37R
N.O. INTL ARPT MOSUNNY   51  31  46 E9        30.34R
SLIDELL        MOSUNNY   44  30  57 CALM      30.34F
$$

MARINE REPORTS

STATION/POSITION TIME  SKY/WX   TEMP    WIND        PRES    VSBY
                                AIR SEA DIR/SP/G
                 (UTC)          (F)     (DEG/KT/KT) (MB)    (MI)
BUOY 30 S HIGH I 1450            51 58  350/  8/ 10 1026.5R
WVE H/P(F/S)=  2/ 6

SEA RIM ST PARK  1500            45      60/ 10/ 12 1027.1F
PORT ARTHUR      1400               56  350/ 11/ 16 1027.9R
SABINE PASS N    1400            48 57  320/ 16/ 22 1028.6R
TEXAS POINT      NOT AVBL
CALCASIEU PASS   1400            53 56  160/ 13/ 15 1024.8S
LK CHARLES BEACH 1400            45 54              1028.5R
MARSH ISLAND     1400            50     110/ 10/ 11   N/A
WVE H/P(F/S)=  0

FRESH WATER LOCK 1400            49 56   90/  6/  8 1026.9R
AMERADA PASS     1400            45 50   30/  2/  2 1027.0R
$$




USA.gov is the U.S. government's official web portal to all federal, state and local government web resources and services.